#timestamp,LO_Frequency,Hit,StdDev 
1582923615.8,286047039.0,P
1582923635.6,286047038.8,Y
1582923655.5,286047000.4,P
1582923675.3,286046999.4,N
1582923695.1,286046999.0,N
1582923715.9,286047000.6,N
1582923735.7,286047000.5,N
1582923755.6,286047002.8,N
1582923775.4,286047002.1,N
1582923795.2,286047003.9,N
1582923815.1,286047003.7,N
1582923816.0,286047003.7,N
1582923835.8,286047005.3,N
1582923855.7,286047004.9,N
1582923875.5,286047007.3,N
1582923895.3,286047007.8,N
1582923915.2,286047010.2,N
1582923935.0,286047010.3,N
1582923935.9,286047010.3,N
1582923955.7,286047007.7,N
1582923975.6,286047010.2,N
1582923995.4,286047009.9,N
1582924015.3,286047011.3,N
1582924035.1,286047010.9,N
1582924036.0,286047010.9,N
1582924055.8,286047013.9,N
1582924075.7,286047012.0,N
1582924095.5,286047010.5,N
1582924115.3,286047008.0,N
1582924135.2,286047006.8,N
1582924155.0,286047005.1,N
1582924155.9,286047005.1,N
1582924175.8,286047003.1,N
1582924195.6,286047003.7,N
1582924215.4,286047001.4,N
1582924235.3,286047005.9,N
1582924255.1,286047003.9,N
1582924275.9,286047001.7,N
1582924295.7,286047002.3,N
1582924315.5,286047000.8,N
1582924335.4,286046998.6,N
1582924355.2,286046998.6,N
1582924375.0,286046998.5,N
1582924375.9,286046998.5,N
1582924395.8,286047001.1,N
1582924415.6,286046999.6,N
1582924435.5,286046999.6,N
1582924455.3,286046997.7,N
1582924475.1,286046997.2,N
1582924495.9,286046999.4,N
1582924515.7,286046996.6,N
1582924535.5,286046998.7,N
1582924555.4,286046999.5,N
1582924575.2,286046997.2,N
1582924595.1,286046994.9,N
1582924596.0,286046994.9,N
1582924615.8,286046995.4,N
1582924635.6,286046997.5,N
1582924655.5,286046997.6,N
1582924675.3,286046995.3,N
1582924695.1,286046997.2,N
1582924715.9,286046997.4,N
1582924735.7,286046998.9,N
1582924755.6,286046998.2,N
1582924775.4,286047002.8,N
1582924795.2,286047002.4,N
1582924815.1,286047011.9,Y
1582924816.0,286047002.8,P
1582924835.8,286047001.5,N
1582924855.7,286047004.4,N
1582924875.5,286047001.3,N
1582924895.3,286047002.2,N
1582924915.2,286047003.5,N
1582924935.0,286047006.0,Y
1582924935.9,286047006.0,P
1582924955.7,286047000.5,N
1582924975.6,286047000.4,N
1582924995.4,286047001.1,N
1582925015.3,286047000.0,N
1582925035.1,286047000.7,N
1582925036.0,286047000.7,N
1582925055.8,286046998.4,N
1582925075.7,286046998.5,N
1582925095.5,286046998.1,N
1582925115.4,286046996.6,N
1582925135.2,286046997.9,N
1582925155.0,286046995.4,N
1582925155.9,286046995.4,N
1582925175.8,286046995.6,N
1582925195.6,286046993.3,N
1582925215.4,286046993.6,N
1582925235.3,286046994.2,N
1582925255.1,286046993.9,N
1582925275.9,286046993.5,N
1582925295.7,286046993.3,N
1582925315.5,286046993.9,N
1582925335.4,286046993.5,N
1582925355.2,286046993.8,N
1582925375.0,286046996.4,N
1582925375.9,286046996.4,N
1582925395.8,286046995.6,N
1582925415.6,286046995.5,N
1582925435.5,286046996.4,N
1582925455.3,286046997.9,N
1582925475.1,286046997.2,N
1582925495.9,286046997.8,N
1582925515.7,286046997.1,N
1582925535.5,286046999.6,N
1582925555.4,286047001.2,N
1582925575.2,286047000.0,N
1582925595.1,286047001.5,N
1582925596.0,286047001.5,N
1582925615.8,286047002.5,N
1582925635.6,286047002.7,N
1582925655.5,286047002.8,N
1582925675.3,286047001.7,N
1582925695.1,286047004.4,N
1582925715.9,286047002.3,N
1582925735.7,286046998.1,N
1582925755.6,286047001.1,N
1582925775.4,286047000.3,N
1582925795.2,286047000.5,N
1582925815.1,286047002.7,N
1582925816.0,286047002.7,N
1582925835.8,286047002.6,N
1582925855.6,286047001.6,N
1582925875.5,286047001.3,N
1582925895.3,286047002.2,N
1582925915.2,286047002.0,N
1582925935.9,286047002.0,N
1582925955.7,286047002.5,N
1582925975.6,286047001.9,N
1582925995.4,286047001.4,N
1582926015.2,286047002.6,N
1582926035.1,286047004.0,N
1582926036.0,286047004.0,N
1582926055.8,286047004.3,N
1582926075.7,286047001.8,N
1582926095.5,286047001.9,N
1582926115.3,286047004.0,Y
1582926135.2,286046998.6,P
1582926155.0,286047000.3,N
1582926155.9,286047000.3,N
1582926175.8,286047000.9,N
1582926195.6,286047000.6,N
1582926215.4,286047000.9,N
1582926235.3,286047000.5,N
1582926255.1,286046998.1,N
1582926275.8,286046999.7,N
1582926295.7,286047001.3,N
15829263151582927195.7,286046990.3,P
